Location: Aiyekoto
(8.4333°N, 4.3667°E)
Time: 13:25:38
(UTC+00:00)

ADEOS - Pass Details

Date: 04 October 2020
Orbit: 792 x 794 km, 98.9° (Epoch: 27 October)

Event Time Altitude Azimuth Distance (km) Brightness Sun altitude
Rises 04:41:52 0° 349° (N) 3,279 6.6 -12.8°
Reaches altitude 10° 04:44:40 10° 334° (NNW) 2,351 5.7 -12.1°
Maximum altitude 04:48:33 22° 285° (WNW) 1,682 4.7 -11.2°
Drops below altitude 10° 04:52:27 10° 236° (SW) 2,355 5.6 -10.2°
Sets 04:55:17 0° 221° (SW) 3,285 6.4 -9.5°
